Skip Page Navigation
NASA JPL Caltech
NASA Logo - Jet Propulsion Laboratory + View the NASA Portal
+ Center for Near-Earth Object Studies
JPL Home Earth Solar System Stars & Galaxies Technology
JPL Solar System Dynamics
BODIES ORBITS EPHEMERIDES TOOLS PHYSICAL DATA DISCOVERY FAQ SITE MAP
JPL Small-Body Database Browser
Search: [ help ]  
351799 (2006 JT45)
Classification: Main-belt Asteroid          SPK-ID: 2351799
Ephemeris | Orbit Diagram | Orbital Elements | Mission Design | Physical Parameters | Discovery Circumstances ]

[ show orbit diagram ]
Orbital Elements at Epoch 2459396.5 (2021-Jul-01.0) TDB
Reference: JPL 16 (heliocentric ecliptic J2000)
 Element Value Uncertainty (1-sigma)   Units 
e .09738937870117192 7.6288e-08  
a 2.667736670476099 2.528e-08 au
q 2.407927453600099 2.0053e-07 au
i 16.94716900734704 4.9146e-06 deg
node 264.8932110536848 1.6889e-05 deg
peri 330.8655923433433 3.4542e-05 deg
M 212.3802288863823 3.7136e-05 deg
tp 2460049.111754216252
(2023-Apr-14.61175422)
0.000169 TDB
period 1591.522800404734
4.36
2.2622e-05
6.194e-08
d
yr
n .2261984559118159 3.2153e-09 deg/d
Q 2.9275458873521 2.7742e-08 au
  Orbit Determination Parameters
   # obs. used (total)      331  
   data-arc span      6722 days (18.40 yr)  
   first obs. used      2002-08-14  
   last obs. used      2021-01-08  
   planetary ephem.      DE441  
   SB-pert. ephem.      SB441-N16  
   condition code      0  
   norm. resid. RMS      .52503  
   source      ORB  
   producer      Otto Matic  
   solution date      2021-Jul-09 12:00:09  

Additional Information
 Earth MOID = 1.4055 au 
 Jupiter MOID = 2.16371 au 
 T_jup = 3.314 
[ show covariance matrix ]

Ephemeris | Orbit Diagram | Orbital Elements | Mission Design | Physical Parameters | Discovery Circumstances ]

Physical Parameter Table
Parameter Symbol Value Units Sigma Reference Notes
absolute magnitude H 15.84   n/a MPCxxxxx  

351799 (2006 JT45)          Discovered 2006-May-08 by Mt. Lemmon Survey at Mount Lemmon
Reference: 20130127/Numbers.arcLast Updated: 2013-01-31

Alternate Designations
 2006 JT45 = 2003 YG173 
Ephemeris | Orbit Diagram | Orbital Elements | Mission Design | Physical Parameters | Discovery Circumstances ]
ABOUT SSD CREDITS/AWARDS PRIVACY/COPYRIGHT GLOSSARY LINKS
FirstGov 2021-Jul-26 06:01 UT
(server date/time)  
NASA Home Page
Site Manager:   Ryan S. Park
Webmaster  Alan B. Chamberlin